Погода в Семидворье

Россия / Республика Крым     44°42′58″N   34°27′53″E
темп.,
°C
ветер,
м/с
пор.,
м/с
влажн.,
%
обл.,
%
осадки,
мм/ч
давл.,
гПа
погр.,
м
25 января, пн
пн2500:00+5ссз119574 0.4 101245
03:00+6з129165 0.4 101239
06:00+6юз12887 0.0 101223
09:00+6в119018 0.0 101122
12:00+8юв148399 0.0 1011155
15:00+7вюв368799 0.0 1009191
18:00+6в3390100 0.0 100852
21:00+6юв31095100 0.8 1006479
26 января, вт
вт2600:00+7ююз121696100 5.9 1008655
03:00+5з348483 7.4 1010142
06:00+5зюз235787 0.0 101186
09:00+5ююв347893 0.0 1012243
12:00+6всв1386100 0.0 1011149
15:00+7всв1388100 0.0 1010161
18:00+7всв2292100 0.1 101038
21:00+7ююв1497100 1.1 1009145
27 января, ср
ср2700:00+7ю1396100 1.1 100896
03:00+7ссв2398100 2.3 100685
06:00+8св3490100 0.1 100465
09:00+7в2388100 0.1 100347
12:00+8всв2393100 0.0 1002104
15:00+8в3593100 0.1 1000202
18:00+7всв239196 0.1 100052
21:00+7в358898 0.1 1000109
28 января, чт
чт2800:00+7сз2385100 0.0 100127
03:00+7с2287100 0.0 100145
06:00+6зсз2390100 0.8 1001223
09:00+4сз4583100 0.9 1003270
12:00+4зсз4474100 0.0 1005523
15:00+3зсз687385 0.1 1005854
18:00+2з697560 0.2 10071023
21:00+2з587658 0.4 1008943
29 января, пт
пт2900:00+1з597549 0.3 1009820
03:00+1з477663 0.8 1009776
06:000з347884 0.1 1009433
09:000зсз039092 0.4 1009292
12:00+2юз458384 1.8 1008579
15:00+2зюз359186 3.6 1007472
18:00+2з5107274 0.4 10071047
21:00+3юз268487 0.6 1006633